Troy, AL

6:04 PM CST on February 23, 2017 (GMT -0600)
Troy Municipal

Weather History for KTOI - March, 2014

Change the Weather History Date:

Saturday, March 1, 2014

  Actual Average Record
Temperature  
Mean Temperature 59 °F 53 °F  
Max Temperature 72 °F 66 °F 76 °F (2006)
Min Temperature 46 °F 40 °F 25 °F (2002)
Degree Days  
Heating Degree Days 6 12  
Month to date heating degree days 6 12  
Since 1 July heating degree days 1946 1931  
Cooling Degree Days 0 0  
Month to date cooling degree days 0  
Year to date cooling degree days 5  
Growing Degree Days 8 (Base 50)    
Moisture  
Dew Point 43 °F    
Average Humidity 61    
Maximum Humidity 77    
Minimum Humidity 44    
Precipitation  
Precipitation T in 0.16 in 1.36 in (2007)
Month to date precipitation T 0.16  
Year to date precipitation 9.06 9.29  
Snow  
Snow 0.00 in - - ()
Month to date snowfall 0.0  
Since 1 July snowfall 0.3  
Snow Depth 0.00 in    
Sea Level Pressure  
Sea Level Pressure 30.19 in    
Wind  
Wind Speed 2 mph (SE)    
Max Wind Speed 9 mph    
Max Gust Speed 13 mph    
Visibility 10 miles    
Events Rain    
T = Trace of Precipitation, MM = Missing Value Source: NWS Daily Summary

Daily Weather History Graph

Daily Weather History Graph

Search for Another Location

Airport or City:

Trip Planner

Search our weather history database for the weather conditions in past years. The results will help you decide how hot, cold, wet, or windy it might be!

Date:

Astronomy

Mar. 01, 2014 Rise Set
Actual Time 6:11 AM CST 5:41 PM CST
Civil Twilight 5:46 AM CST 6:06 PM CST
Nautical Twilight 5:18 AM CST 6:34 PM CST
Astronomical Twilight 4:50 AM CST 7:03 PM CST
Moon 6:07 AM CST (3/1) 6:23 PM CST (3/1)
Length of Visible Light 12h 19m
Length of Day
11h 30m
New Moon, 0% of the Moon is Illuminated
Mar 1
New Moon
Mar 8
First Quarter
Mar 16
Full
Mar 23
Last Quarter
Mar 30
New

Hourly Weather History & Observations

Time (CST) Temp. Dew Point Humidity Pressure Visibility Wind Dir Wind Speed Gust Speed Precip Events Conditions
12:53 AM 48.0 °F 35.1 °F 61% 30.14 in 10.0 mi Calm Calm - 0.00 in Rain Light Rain
1:53 AM 46.9 °F 39.9 °F 77% 30.14 in 10.0 mi Calm Calm - 0.00 in   Overcast
2:53 AM 46.9 °F 39.9 °F 77% 30.15 in 10.0 mi Calm Calm - 0.00 in   Overcast
3:53 AM 48.0 °F 39.9 °F 74% 30.15 in 10.0 mi Calm Calm - 0.00 in   Overcast
4:53 AM 48.0 °F 37.0 °F 66% 30.16 in 10.0 mi Calm Calm - N/A   Overcast
5:53 AM 48.9 °F 37.0 °F 64% 30.19 in 10.0 mi ENE 3.5 mph - N/A   Overcast
6:53 AM 48.9 °F 37.0 °F 64% 30.21 in 10.0 mi Calm Calm - N/A   Overcast
7:53 AM 52.0 °F 37.9 °F 59% 30.22 in 10.0 mi East 4.6 mph - N/A   Overcast
8:53 AM 55.0 °F 39.0 °F 55% 30.24 in 10.0 mi East 4.6 mph - N/A   Overcast
9:53 AM 59.0 °F 42.1 °F 53% 30.26 in 10.0 mi ESE 8.1 mph - N/A   Overcast
10:53 AM 63.0 °F 43.0 °F 48% 30.24 in 10.0 mi Variable 5.8 mph - N/A   Overcast
11:53 AM 66.0 °F 45.0 °F 47% 30.21 in 10.0 mi South 5.8 mph - N/A   Scattered Clouds
12:53 PM 70.0 °F 46.9 °F 44% 30.18 in 10.0 mi Variable 4.6 mph - N/A   Scattered Clouds
1:53 PM 70.0 °F 46.9 °F 44% 30.16 in 10.0 mi SW 6.9 mph - N/A   Partly Cloudy
2:53 PM 69.1 °F 46.0 °F 44% 30.15 in 10.0 mi Calm Calm - N/A   Scattered Clouds
3:53 PM 70.0 °F 46.0 °F 42% 30.15 in 10.0 mi Calm Calm - N/A   Scattered Clouds
4:53 PM 70.0 °F 46.9 °F 44% 30.15 in 10.0 mi SSW 6.9 mph - N/A   Mostly Cloudy
5:53 PM 64.9 °F 46.9 °F 52% 30.16 in 10.0 mi SSE 3.5 mph - N/A   Clear
6:53 PM 59.0 °F 48.0 °F 67% 30.17 in 10.0 mi Calm Calm - N/A   Clear
7:53 PM 55.0 °F 48.0 °F 77% 30.19 in 10.0 mi Calm Calm - N/A   Clear
8:53 PM 55.9 °F 48.9 °F 77% 30.21 in 10.0 mi Calm Calm - N/A   Overcast
9:53 PM 55.0 °F 48.9 °F 80% 30.21 in 10.0 mi Calm Calm - N/A   Overcast
10:53 PM 53.1 °F 46.9 °F 80% 30.22 in 10.0 mi Calm Calm - N/A   Clear
11:53 PM 52.0 °F 46.9 °F 83% 30.19 in 10.0 mi Calm Calm - N/A   Clear